Retour au catalogue

STARLINK-4775

ActifCommunicationsVLEO
NORAD 53934·PAYLOAD·🇺🇸 United States

Lancé Sep 24, 2022 depuis Cape Canaveral Space Force Station

Loading…

Prochains Passages (prochaines 24 heures)

TLE

FraisSource: CelesTrak SupGP

Époque: Sep 15, 2026, 01:49 UTC

1 53934C 22119BA  26258.07618056 -.00021148  00000+0 -13264-2 0  2588
2 53934  53.1576 168.3531 0001618  88.5744 338.9366 15.08839012    18

Suivez STARLINK-4775 en temps réel avec AllMySat

Download on the App Store